Showing default

HULIANWANG DIGUI-168, 68660

Orbit data source: Space-Track

HULIANWANG DIGUI-168, 68660 is a payload satellite owned by Zhongguo Xingwang (CN) in LEO that was launched on Wed, 08 Apr 2026 UTC via a CHANG ZHENG 6A launch vehicle from the Taiyaun Space Center, China (TSC). Payload-class satellites include a variety of spacecraft equipped with specific instruments for various scientific and technological missions. These include communications satellites like Starlink; space stations such as the ISS; scientific satellites like the Hubble; Earth observation satellites from companies like Planet Labs, Umbra, and HawkEye 360; GPS; miniature CubeSats for education and research; and military/defense satellites.

Loading next visibility...
Identifier
68660, 2026-076E
Orbit
LEO
Country
Flag of CNCN / PRC
Related business
Manufacturer
SECM
Mission
Operational spacecraft
Bus & Motor
XINGWANG S, Unknown motor
Mass
~800 kg wet, ~800 kg dry
Launch date (UTC)
2026-04-08 (2 months ago)
Launch vehicle
CHANG ZHENG 6A
Launch site
Taiyaun Space Center, China (TSC)
Object type
Payload
Rocket body
Debris
Shape & HBR
Unknown shape, 14.5 m
Radar Cross Section
RCS unknown

Expand to show TLE details & history
Last TLE update: 1 day ago

TLE from 1 day ago
0 HULIANWANG DIGUI-168
1 68660U 26076E   26144.63244504 -.00000272  00000-0 -56957-3 0  9990
2 68660  86.4926  51.8114 0005583 147.0687 213.0802 13.35080239  6249
Epoch: 2026-05-24T15:10Z
TLE epoch observation values (Epoch: 2026-05-24T15:10:43.251Z)
Latitude
-0.00001°
Longitude
-58.10061°
Altitude
1,134.084 km
Speed
7.284 km/s
True Right ascension
03h 27m 14s
True Declination
0° 00' 00"
Sunlit
Object was in daylight at epoch
Visualization orbit readout
Latitude
Unknown
Longitude
Unknown
Altitude
Unknown
Speed
Unknown
Apparent Right ascension
Unknown
Apparent Declination
Unknown
Sunlit
N/A
Visualization observer readout
Local Sidereal Time
09:12:15
Azimuth
Unknown
Elevation
Unknown
Doppler factor
Unknown
Orbital elements
Apogee altitude
1,128.955 km
Perigee altitude
1,120.578 km
Semi-major axis
7,502.904 km
Eccentricity
0.00056
Inclination
86.4926°
RAAN
51.8114°
Arg. of periapsis
147.0687°
True anomaly
213.0453°
Mean anomaly
213.0802°
Eccentric anomaly
213.06275°
Mean motion
3.33964 °/min
Orbital period
107.8 mins
BSTAR
-0.00056957
Loading maneuver chart data...
Computing Atmospheric mass density...
Loading historical data...
Loading historical data...
Loading historical data...
Loading historical data...
Loading historical data...
Loading historical data...
Loading historical data...

Documentation

Showing up to 5 results
|